Home > Weather > Calgary > Past weeks

Flag for Canada Weather for the Past 2 Weeks in Calgary, Alberta, Canada

Now
61 °F

Partly sunny.


Feels Like: 61 °F
Forecast: 40 / 67 °F
Wind: 5 mph from South

Location: Calgary International

Current Time: May 6, 2016 at 1:06:26 PM

Latest Report: May 6, 2016 at 12:00 PM


Visibility: 40 mi

Pressure: 30.32 "Hg (26.74 "Hg at 1063m altitude)

Humidity: 23%

Dew Point: 23 °F

Location of CalgaryLocation

Historic Weather in Calgary — Graph

°F

Calgary Temperature Yesterday

Maximum temperature yesterday: 68 °F (at 12:00 AM)
Minimum temperature yesterday: 46 °F (at 10:00 AM)
Average temperature yesterday: 52 °F

High & Low Weather Summary for the Past Weeks

 TemperatureHumidityPressure
High81 °F (May 3, 4:00 PM)100% (Apr 24, 9:00 PM)30.38 "Hg (Apr 24, 9:00 PM)
Low36 °F (Apr 23, 5:00 AM)12% (May 3, 9:00 PM)29.76 "Hg (May 4, 8:00 PM)
Average49 °F59%30.06 "Hg
* Reported Apr 21 11:00 AM — May 6 11:00 AM, Calgary, Weather by CustomWeather, © 2016

Note: Actual official high and low records may vary slightly from our data, if they occured in-between our weather recording intervals... More about our weather records

Advertising

Calgary Weather History for the Previous 24 Hours

Scroll right to see more
 ConditionsComfort  
Time TempWeatherWind HumidityBarometerVisibility
11:00 AM
Fri, May 6
59 °FPartly sunny.6 mph31%30.32 "Hg40 mi
10:00 AM55 °FScattered clouds.8 mph51%30.34 "Hg40 mi
9:00 AM50 °FPassing clouds.3 mph62%30.36 "Hg40 mi
8:00 AM43 °FScattered clouds.No wind76%30.38 "Hg40 mi
7:00 AM39 °FPartly sunny.2 mph81%30.36 "Hg40 mi
6:00 AM39 °FPassing clouds.2 mph81%30.36 "Hg30 mi
5:00 AM43 °FPassing clouds.2 mph76%30.32 "Hg15 mi
4:00 AM43 °FClear.5 mph81%30.31 "Hg15 mi
3:00 AM43 °FClear.3 mph87%30.29 "Hg15 mi
2:00 AM45 °FPassing clouds.2 mph76%30.28 "Hg15 mi
1:00 AM46 °FPassing clouds.5 mph82%30.27 "Hg15 mi
12:00 AM46 °FPassing clouds.7 mph76%30.25 "Hg15 mi
11:00 PM
Thu, May 5
46 °FPassing clouds.6 mph82%30.25 "Hg15 mi
10:00 PM48 °FPartly sunny.7 mph76%30.24 "Hg15 mi
9:00 PM48 °FPartly sunny.7 mph71%30.19 "Hg15 mi
8:00 PM50 °FPartly sunny.5 mph71%30.16 "Hg10 mi
7:00 PM48 °FLight rain. Mostly cloudy.6 mph71%30.16 "Hg10 mi
6:00 PM50 °FLight rain. Mostly cloudy.12 mph67%30.14 "Hg10 mi
5:00 PM50 °FOvercast.8 mph62%30.13 "Hg15 mi
4:00 PM50 °FPartly sunny.13 mph58%30.11 "Hg15 mi
3:00 PM50 °FCloudy.13 mph62%30.12 "Hg10 mi
2:00 PM48 °FPartly sunny.17 mph66%30.11 "Hg15 mi
1:00 PM48 °FLight rain. Overcast.16 mph71%30.10 "Hg15 mi
Weather by CustomWeather, © 2016

See weather overviewHow to use our weather pages